EA3ANS-1 Catalonia ES current weather conditions

sailwx.info

Wind from 201 at 0 knots gusting 0

Air temperature 20.0° C
Dewpoint 16.0° C

Last reported at 2020-Sep-18 12:00 UTC.
Time now 2020-Sep-18 13:14 UTC

Location: N 41°33' E 001°54'.
View on Google Maps.

See reports from other nearby stations

  
Tides and Currents Weather Stations Pressure Air Temp Water Temp Dewpoint Dewpoint Depression Visibility Wind Speed Wind Dir Waves Ship Positions
date/time (UTC)wind fromknots sea level pressurealtimeterstation pressurevisibilityair tempwater tempwave heightnotes
2020-Sep-18 12:00 201 0 gusting 0 20.0
2020-Sep-18 11:50 219 1 gusting 0 20.0
2020-Sep-18 11:40 082 0 20.0
2020-Sep-18 11:20 346 0 20.0
2020-Sep-18 11:10 293 20.0
2020-Sep-18 11:00 023 2 gusting 1 19.4
2020-Sep-18 10:50 333 4 gusting 5 20.0
2020-Sep-18 10:30 302 5 gusting 6 21.1
2020-Sep-18 10:20 291 4 gusting 3 21.7
2020-Sep-18 10:10 330 5 gusting 6 21.7
2020-Sep-18 10:00 350 5 gusting 3 21.7
2020-Sep-18 09:50 302 2 gusting 3 21.7
2020-Sep-18 09:40 332 3 gusting 1 21.7
2020-Sep-18 09:30 307 2 gusting 2 21.7
2020-Sep-18 09:10 032 1 21.1
2020-Sep-18 09:00 357 3 gusting 2 21.1
2020-Sep-18 08:50 349 5 gusting 4 21.7
2020-Sep-18 08:30 323 5 gusting 5 21.7
2020-Sep-18 08:20 354 2 gusting 3 21.7
2020-Sep-18 08:10 301 2 gusting 2 21.7
2020-Sep-18 08:00 277 2 gusting 2 21.7
2020-Sep-18 07:50 257 1 gusting 0 21.7
2020-Sep-18 07:40 114 21.7
2020-Sep-18 07:30 152 1 21.7
2020-Sep-18 07:20 127 21.7
2020-Sep-18 07:10 129 1 gusting 1 21.1
2020-Sep-18 07:00 255 1 gusting 0 21.1
2020-Sep-18 06:50 072 21.1
2020-Sep-18 06:40 107 2 gusting 1 21.1
2020-Sep-18 06:30 079 21.1
2020-Sep-18 06:20 340 21.1
2020-Sep-18 06:10 340 20.6
2020-Sep-18 06:00 340 20.6
2020-Sep-18 05:50 340 20.6
2020-Sep-18 05:40 084 20.6
2020-Sep-18 05:30 145 20.6
2020-Sep-18 05:20 091 0 gusting 0 21.1
2020-Sep-18 05:10 212 0 gusting 0 21.1
2020-Sep-18 05:00 300 3 gusting 4 21.1
2020-Sep-18 04:50 336 2 gusting 5 20.6
2020-Sep-18 04:40 280 1 gusting 0 20.6
2020-Sep-18 04:30 093 20.6
2020-Sep-18 04:20 097 1 gusting 1 20.6
2020-Sep-18 04:10 084 1 20.6
2020-Sep-18 04:00 354 21.1
2020-Sep-18 03:50 354 21.1
2020-Sep-18 03:40 354 21.1
2020-Sep-18 03:30 354 21.1
2020-Sep-18 03:20 354 1 21.1
2020-Sep-18 03:10 349 21.1
2020-Sep-18 03:00 004 2 gusting 4 21.1
2020-Sep-18 02:50 023 21.1
2020-Sep-18 02:40 245 21.1
2020-Sep-18 02:31 245 21.1
2020-Sep-18 02:21 245 21.7
2020-Sep-18 01:41 277 22.2
2020-Sep-18 01:31 277 22.8
2020-Sep-18 01:21 277 22.8
2020-Sep-18 01:11 277 22.8
2020-Sep-18 01:01 277 22.8
2020-Sep-18 00:41 277 22.8
2020-Sep-18 00:31 277 22.8
2020-Sep-18 00:21 277 0 gusting 0 22.8
2020-Sep-18 00:11 049 22.8
2020-Sep-18 00:01 049 1 23.3
2020-Sep-17 23:51 120 23.3
2020-Sep-17 23:41 120 23.3
2020-Sep-17 23:31 120 23.3
2020-Sep-17 23:21 221 23.3
2020-Sep-17 23:01 221 23.9
2020-Sep-17 22:51 221 23.9
2020-Sep-17 22:41 221 23.9
2020-Sep-17 22:33 187 1 gusting 2 23.9
2020-Sep-17 22:21 240 1 gusting 3 23.9
2020-Sep-17 22:11 257 2 gusting 1 23.9
2020-Sep-17 22:01 288 24.4
2020-Sep-17 21:51 186 24.4
2020-Sep-17 21:31 186 24.4
2020-Sep-17 21:21 186 24.4
2020-Sep-17 21:11 186 24.4
2020-Sep-17 21:01 186 24.4
2020-Sep-17 20:51 186 24.4
2020-Sep-17 20:41 186 24.4
2020-Sep-17 20:31 188 1 gusting 0 25.0
2020-Sep-17 20:21 257 25.0
2020-Sep-17 20:11 267 1 gusting 1 25.0
2020-Sep-17 20:01 312 1 gusting 1 25.0
2020-Sep-17 19:51 233 0 gusting 0 25.0
2020-Sep-17 19:41 222 0 gusting 0 25.0
2020-Sep-17 19:31 210 2 gusting 2 25.0
2020-Sep-17 19:11 248 2 gusting 1 25.0
2020-Sep-17 19:01 228 1 gusting 0 25.0
2020-Sep-17 18:41 208 1 gusting 2 25.6
2020-Sep-17 18:31 245 2 gusting 0 25.6
2020-Sep-17 18:21 233 3 gusting 4 25.6
2020-Sep-17 18:11 283 3 gusting 2 26.1
2020-Sep-17 18:01 249 4 gusting 4 26.1
2020-Sep-17 17:51 177 3 gusting 2 26.1
2020-Sep-17 17:41 204 5 gusting 2 26.7
2020-Sep-17 17:11 231 6 gusting 3 27.2
2020-Sep-17 17:01 240 4 gusting 5 27.8
2020-Sep-17 16:21 224 6 gusting 6 29.4
2020-Sep-17 16:01 207 4 gusting 3 29.4
2020-Sep-17 15:41 205 2 gusting 3 29.4
2020-Sep-17 15:11 184 6 gusting 4 30.0
2020-Sep-17 14:51 193 4 gusting 4 30.6
2020-Sep-17 14:41 188 5 gusting 5 30.6
2020-Sep-17 14:11 207 6 gusting 5 30.0
2020-Sep-17 14:01 170 4 gusting 1 30.6
2020-Sep-17 13:51 208 4 gusting 1 30.6
2020-Sep-17 13:41 190 1 gusting 6 31.7
2020-Sep-17 13:31 068 31.1
2020-Sep-17 13:01 162 1 gusting 4 30.0
2020-Sep-17 12:51 134 2 gusting 0 30.0
2020-Sep-17 12:41 131 2 gusting 1 30.0
2020-Sep-17 12:31 159 3 gusting 2 30.0
2020-Sep-17 12:21 097 1 gusting 1 29.4
2020-Sep-17 12:11 086 1 gusting 1 28.9
2020-Sep-17 11:51 139 1 gusting 0 29.4
2020-Sep-17 11:41 013 2 gusting 1 29.4
2020-Sep-17 11:31 139 29.4
2020-Sep-17 11:11 208 1 gusting 2 30.0
2020-Sep-17 11:01 238 2 gusting 1 28.9
2020-Sep-17 10:41 333 0 gusting 1 26.7
2020-Sep-17 10:21 322 4 gusting 3 25.0
2020-Sep-17 10:11 345 3 gusting 4 25.0
2020-Sep-17 10:01 321 6 gusting 6 24.4
2020-Sep-17 09:51 284 4 gusting 4 23.9
2020-Sep-17 09:31 308 6 gusting 5 22.8
2020-Sep-17 09:11 284 5 gusting 5 21.7
2020-Sep-17 09:01 342 5 gusting 4 21.7
2020-Sep-17 08:51 295 6 gusting 6 21.1
2020-Sep-17 08:41 308 4 gusting 6 21.1
2020-Sep-17 08:31 014 4 gusting 3 21.1
2020-Sep-17 08:21 284 5 gusting 4 21.1
2020-Sep-17 08:01 319 4 gusting 7 21.1
2020-Sep-17 07:51 321 3 gusting 3 21.1
2020-Sep-17 07:31 315 6 gusting 7 20.6
2020-Sep-17 07:11 308 5 gusting 5 20.0
2020-Sep-17 07:01 285 5 gusting 8 20.0
2020-Sep-17 06:51 293 6 gusting 6 20.0
2020-Sep-17 06:41 343 6 gusting 7 19.4
2020-Sep-17 06:31 316 7 gusting 6 19.4
2020-Sep-17 06:21 274 6 gusting 7 19.4
2020-Sep-17 06:11 283 6 gusting 7 19.4
2020-Sep-17 06:01 330 6 gusting 8 18.9
2020-Sep-17 05:31 309 5 gusting 9 19.4
2020-Sep-17 05:11 294 3 gusting 4 19.4
2020-Sep-17 05:01 291 5 gusting 3 19.4
2020-Sep-17 04:51 297 4 gusting 5 19.4
2020-Sep-17 04:41 318 4 gusting 6 19.4
2020-Sep-17 04:31 290 5 gusting 4 20.0
2020-Sep-17 04:11 332 4 gusting 3 20.0
2020-Sep-17 04:01 082 4 gusting 4 20.0
2020-Sep-17 03:31 018 7 gusting 6 20.0
2020-Sep-17 03:21 281 5 gusting 6 20.0
2020-Sep-17 03:11 271 4 gusting 5 20.0
2020-Sep-17 03:01 312 5 gusting 3 20.0
2020-Sep-17 02:51 322 5 gusting 6 20.6
2020-Sep-17 02:41 300 3 gusting 4 20.6
2020-Sep-17 02:31 311 3 gusting 3 20.6
2020-Sep-17 02:21 249 2 gusting 0 20.6
2020-Sep-17 02:11 312 4 gusting 4 20.6
2020-Sep-17 01:51 343 2 gusting 0 21.1
2020-Sep-17 01:41 332 2 gusting 1 21.1
2020-Sep-17 01:31 287 3 gusting 3 21.1
2020-Sep-17 01:21 302 3 gusting 5 21.1
2020-Sep-17 01:11 276 1 gusting 0 21.1
2020-Sep-17 01:01 035 0 21.1
2020-Sep-17 00:51 285 0 21.1
2020-Sep-17 00:41 21.1
2020-Sep-17 00:21 319 21.1
2020-Sep-17 00:01 307 3 gusting 3 21.7
2020-Sep-16 23:51 225 2 gusting 2 21.7
2020-Sep-16 23:41 271 2 gusting 2 21.7
2020-Sep-16 23:31 295 3 gusting 2 21.7
2020-Sep-16 23:21 305 3 gusting 3 21.7
2020-Sep-16 23:11 281 3 gusting 1 21.7
2020-Sep-16 22:51 262 3 gusting 0 21.7
2020-Sep-16 22:41 293 1 gusting 2 21.7
2020-Sep-16 22:31 267 0 21.7
2020-Sep-16 22:21 045 0 22.2
2020-Sep-16 22:11 053 22.2
2020-Sep-16 22:01 269 1 gusting 0 22.2
2020-Sep-16 21:41 330 0 gusting 2 22.8
2020-Sep-16 21:21 346 0 22.2
2020-Sep-16 21:11 276 1 gusting 2 22.2
2020-Sep-16 21:01 291 22.2
2020-Sep-16 20:51 291 22.2
2020-Sep-16 20:31 007 22.8
2020-Sep-16 20:21 007 22.8
2020-Sep-16 20:11 055 0 23.3
2020-Sep-16 20:01 039 23.3
2020-Sep-16 19:51 039 23.9
2020-Sep-16 19:41 048 1 gusting 2 23.9
2020-Sep-16 19:31 094 24.4
2020-Sep-16 19:21 139 1 gusting 0 24.4
2020-Sep-16 19:11 150 1 gusting 1 24.4
2020-Sep-16 19:01 211 2 gusting 2 25.0
2020-Sep-16 18:51 207 0 25.0
2020-Sep-16 18:31 229 3 gusting 2 25.0
2020-Sep-16 18:21 124 1 gusting 0 25.6
2020-Sep-16 18:11 245 0 gusting 2 25.6
2020-Sep-16 17:31 252 6 gusting 5 27.2
2020-Sep-16 17:11 235 3 gusting 4 27.8
2020-Sep-16 17:01 225 5 gusting 5 28.3
2020-Sep-16 16:51 215 3 gusting 3 28.3
2020-Sep-16 16:31 232 7 gusting 6 28.9
2020-Sep-16 16:21 240 7 gusting 8 28.9
2020-Sep-16 16:02 236 5 gusting 3 29.4
2020-Sep-16 15:52 173 5 gusting 4 30.0
2020-Sep-16 15:42 203 2 gusting 3 29.4
2020-Sep-16 15:31 148 6 gusting 7 30.0
2020-Sep-16 15:21 152 4 gusting 6 30.0
2020-Sep-16 15:11 148 6 gusting 7 30.0
2020-Sep-16 15:01 128 6 gusting 6 30.6
2020-Sep-16 14:51 111 6 gusting 6 30.6
2020-Sep-16 14:42 111 6 gusting 6 30.6
2020-Sep-16 14:31 142 6 gusting 7 31.1
2020-Sep-16 14:21 150 6 gusting 4 31.1
2020-Sep-16 14:12 122 5 gusting 4 31.1
2020-Sep-16 14:02 111 6 gusting 4 31.1
2020-Sep-16 13:52 139 4 gusting 5 31.1
2020-Sep-16 13:32 158 5 gusting 4 31.1
2020-Sep-16 13:11 253 6 gusting 3 31.7
2020-Sep-16 13:01 186 4 gusting 5 31.7